weather.gov     
National Weather Service

Regional Weather Roundup
NWS Homepage
This page is being discontinued on March 12, 2014.
The same data is available at this site. Please update your bookmarks.
Thank you, and we apologize for the inconvenience.
Please send an email to SR-SRH.Webmaster@noaa.gov with any concerns.


Current Version
Previous Version:    01  02  03  04  05  06  07  08  09  10  11  12  13  14  15  16  17  18  19  20  21  22  23  24  25  26  27  28  29  30  
   31  32  33  34  35  36  37  38  39  40  41  42  43  44  45  46  47  48  49  50  51  52  53  54  55  56  57  58  59  60  
[Printable]
621
ASCA44 KEWX 251920
RWRMX

LATIN AMERICA AND CARIBBEAN REGIONAL WEATHER ROUNDUP
NATIONAL WEATHER SERVICE AUSTIN/SAN ANTONIO TX
200 PM CDT SAT OCT 25 2014

NOTE: "FAIR" INDICATED FEW OR NO CLOUDS BELOW 12,000 FEET WITH NO
SIGNIFICANT WEATHER AND/OR OBSTRUCTIONS TO VISIBILITY.

BAJA CALIFORNIA

CITY           SKY/WX    TMP DP  RH WIND       PRES   REMARKS
LORETO         SUNNY     90  68  48 CALM      29.94F HX  93
LA PAZ         SUNNY     90  55  31 N9        29.98
MEXICALI       MOSUNNY   91  43  18 W7        29.97
S.J. DEL CABO  SUNNY     95  70  43 CALM      29.97F HX 101
TIJUANA        SUNNY     79  55  44 CALM      30.07F

NORTHWESTERN MEXICO

CITY           SKY/WX    TMP DP  RH WIND       PRES   REMARKS
CULIACAN       SUNNY     97  79  56 NW7       29.93  HX 115
DURANGO        SUNNY     72  39  30 N9        30.37F
GUAYMAS        SUNNY     93  70  46 S9        29.91  HX  99
HERMOSILLO     SUNNY     91  59  33 CALM      30.01  HX  90
CD. JUAREZ     SUNNY     81  54  39 CALM      30.17
LOS MOCHIS     SUNNY     91  59  33 NW9       29.94F HX  90
OBREGON        SUNNY     93  64  38 W3        29.92  HX  95

NORTHEASTERN MEXICO

CITY           SKY/WX    TMP DP  RH WIND       PRES   REMARKS
CHIHUAHUA      SUNNY     79  46  31 E5        30.27
MATAMOROS      MOSUNNY   82  72  69 CALM      30.15
MONCLOVA       MOSUNNY  N/A N/A N/A CALM      30.17F
MONTERREY      MOSUNNY   81  59  47 E6        30.14F
NUEVO LAREDO   SUNNY     86  63  45 S6        30.13
PIEDRAS NEGRAS SUNNY     88  61  40 SE9       30.15F
REYNOSA        SUNNY     81  59  47 E3        30.12
SALTILLO       SUNNY     77  55  47 N7        30.30F
TORREON        SUNNY     81  50  34 E6        30.24F
CD. VICTORIA   SUNNY     84  64  51 SE3       30.13

WESTERN MEXICO

CITY           SKY/WX    TMP DP  RH WIND       PRES   REMARKS
AGUASCALIENTES SUNNY     72  37  28 NE8       30.35
COLIMA         MOSUNNY   88  64  45 CALM      30.05F
DEL BAJIO      MOSUNNY   73  48  40 N7        30.36F
GUADALAJARA    MOSUNNY   75  50  41 CALM      30.26
MANZANILLO     MOSUNNY   90  77  66 S9        29.87F HX 102
MAZATLAN       MOSUNNY   88  75  66 S8        29.91F HX  97
P. VALLARTA    MOSUNNY   88  79  74 SW9       29.90F HX 102
URUAPAN        PTSUNNY   75  63  64 S12       30.24F
ZACATECAS      SUNNY     70  43  37 NE12      30.39F

CENTRAL MEXICO

CITY           SKY/WX    TMP DP  RH WIND       PRES   REMARKS
CUERNAVACA     MOSUNNY   77  55  47 CALM      30.20F
MEXICO CITY    MOSUNNY   66  39  37 NW5       30.39F
MORELIA        MOSUNNY   73  50  43 CALM      30.30
POZA RICA      PTSUNNY   88  75  66 NE9       30.15F HX  97
PUEBLA         SUNNY     70  37  30 NE12      30.37F
QUERETARO      PTSUNNY   70  43  37 SE6       30.36F
S. LUIS POTOSI MOSUNNY   70  43  37 N6        30.36F
TAMPICO        MOSUNNY   84  64  51 NE7       30.11F
TOLUCA         MOSUNNY   66  43  42 W7        30.44F

SOUTHERN MEXICO

CITY           SKY/WX    TMP DP  RH WIND       PRES   REMARKS
ACAPULCO       MOSUNNY   86  79  79 W7        29.90F HX  99
B. DE HUATULCO MOSUNNY   86  75  70 SW9       29.96  HX  95
OAXACA         PTSUNNY   73  54  49 W6        30.27F
P. ESCONDIDO   MOSUNNY   82  77  83 S12       30.07S HX  91
VERACRUZ       MOSUNNY   82  66  57 N12       30.09F
ZIHUATANEJO    SUNNY     91  77  62 SW7       29.92F HX 105

YUCATAN PENINSULA

CITY           SKY/WX    TMP DP  RH WIND       PRES   REMARKS
CAMPECHE       MOSUNNY   81  70  69 N14       29.99F
CANCUN         PTSUNNY   82  64  54 N10       29.95F
CHETUMAL       PTSUNNY   82  73  74 N12       29.96F
CD. DEL CARMEN MOSUNNY   84  66  54 N14       30.02F
COZUMEL        PTSUNNY   79  68  69 N14       29.95F
MERIDA         PTSUNNY   84  64  51 NW10      30.00F
MINATITLAN     PTSUNNY   82  68  61 NW21      30.05F
TAPACHULA      MOSUNNY   86  79  79 CALM      29.89F HX  99
TUX. GUTIERREZ MOSUNNY   81  66  61 NW18      30.04F
VILLAHERMOSA   CLOUDY    75  73  94 CALM      30.06F

CENTRAL AMERICA

CITY           SKY/WX    TMP DP  RH WIND       PRES   REMARKS
BELIZE CITY    MOSUNNY   82  73  74 N10         N/A
MANAGUA        PTCLDY    88  75  66 N7        29.80F HX  97

CARIBBEAN

CITY           SKY/WX    TMP DP  RH WIND       PRES   REMARKS
ARUBA          MOSUNNY   88  75  66 E17       29.77F HX  97
CURACAO        MOSUNNY   88  77  70 E14       29.80F HX 100
KINGSTON       MOSUNNY   88  79  74 S7        29.83S HX 102
NASSAU         MOSUNNY   82  68  61 N14       29.83F
SAN JUAN       MOSUNNY   91  72  52 S9G17     29.84F HX  98
SANTO DOMINGO  MOSUNNY   88  73  62 S9        29.83S HX  96
ST. MAARTEN    LGT RAIN  86  77  74 SE9       29.86F HX  97

$$





U.S. Dept. of Commerce
NOAA National Weather Service
1325 East West Highway
Silver Spring, MD 20910
E-mail: w-nws.webmaster@noaa.gov
Page last modified: May 16, 2007
NATIONAL WEATHER SERVICE: for Safety, for Work, for Fun - FOR LIFE